Erie, PA

4:46 PM EST on December 10, 2019 (GMT -0500)
Erie International

Weather History for KERI - October, 2019

Change the Weather History Date:

Thursday, October 24, 2019

  Actual Average Record
Temperature  
Mean Temperature 54 °F 50 °F  
Max Temperature 63 °F 58 °F 79 °F (1963)
Min Temperature 45 °F 43 °F 27 °F (1969)
Degree Days  
Heating Degree Days 11 15  
Month to date heating degree days 189 270  
Since 1 July heating degree days 201 394  
Cooling Degree Days 0 0  
Month to date cooling degree days 22 7  
Year to date cooling degree days 847 636  
Growing Degree Days 4 (Base 50)    
Moisture  
Dew Point 37 °F    
Average Humidity 54    
Maximum Humidity 86    
Minimum Humidity 36    
Precipitation  
Precipitation 0.00 in 0.12 in 1.45 in (1926)
Month to date precipitation 1.82 3.20  
Year to date precipitation 31.45 33.64  
Snow  
Snow 0.00 in 0.10 in - ()
Month to date snowfall 0.0 0.1  
Since 1 July snowfall 0.0 0.1  
Since 1 September snowfall 0.0 0.1  
Snow Depth 0.00 in    
Sea Level Pressure  
Sea Level Pressure 30.20 in    
Wind  
Wind Speed 12 mph ()    
Max Wind Speed 24 mph    
Max Gust Speed 32 mph    
Visibility 10.0 miles    
Events      
T = Trace of Precipitation, MM = Missing Value Source: Averaged Metar Reports

Daily Weather History Graph

Daily Weather History Graph

Search for Another Location

Airport or City:

Astronomy

Oct. 24, 2019 Rise Set
Actual Time 7:43 AM EDT 6:25 PM EDT
Civil Twilight 7:14 AM EDT 6:54 PM EDT
Nautical Twilight 6:42 AM EDT 7:26 PM EDT
Astronomical Twilight 6:09 AM EDT 7:59 PM EDT
Moon 3:05 AM EDT (10/24) 4:57 PM EDT (10/24)
Length of Visible Light 11h 39m
Length of Day
10h 42m
Waning Crescent, 17% of the Moon is Illuminated
Oct 24
Waning Crescent
Oct 27
New
Nov 4
First Quarter
Nov 12
Full
Nov 19
Last Quarter

Hourly Weather History & Observations

Time (EDT) Temp. Windchill Dew Point Humidity Pressure Visibility Wind Dir Wind Speed Gust Speed Precip Events Conditions
12:51 AM 53.1 °F - 30.9 °F 43% 30.12 in 10.0 mi South 17.3 mph 25.3 mph N/A   Clear
1:51 AM 53.1 °F - 30.9 °F 43% 30.12 in 10.0 mi South 16.1 mph 23.0 mph N/A   Clear
2:51 AM 53.1 °F - 30.9 °F 43% 30.12 in 10.0 mi SSW 17.3 mph 28.8 mph N/A   Clear
3:51 AM 54.0 °F - 30.9 °F 41% 30.12 in 10.0 mi SSW 16.1 mph 27.6 mph N/A   Scattered Clouds
4:51 AM 55.0 °F - 30.9 °F 40% 30.09 in 10.0 mi South 16.1 mph 26.5 mph N/A   Overcast
5:51 AM 57.0 °F - 30.9 °F 37% 30.10 in 10.0 mi SSW 21.9 mph 31.1 mph N/A   Overcast
6:51 AM 55.9 °F - 30.9 °F 39% 30.12 in 10.0 mi SSW 20.7 mph 29.9 mph N/A   Overcast
7:51 AM 55.9 °F - 32.0 °F 40% 30.14 in 10.0 mi South 16.1 mph 26.5 mph N/A   Overcast
8:51 AM 55.9 °F - 32.0 °F 40% 30.16 in 10.0 mi SSW 17.3 mph - N/A   Overcast
9:51 AM 55.9 °F - 33.1 °F 42% 30.18 in 10.0 mi SSW 17.3 mph 23.0 mph N/A   Overcast
10:51 AM 57.0 °F - 35.1 °F 44% 30.18 in 10.0 mi SSW 15.0 mph - N/A   Overcast
11:51 AM 57.9 °F - 36.0 °F 44% 30.20 in 10.0 mi SSW 13.8 mph - N/A   Overcast
12:51 PM 60.1 °F - 37.0 °F 42% 30.21 in 10.0 mi SW 15.0 mph - N/A   Overcast
1:51 PM 62.1 °F - 41.0 °F 46% 30.20 in 10.0 mi West 11.5 mph 21.9 mph N/A   Partly Cloudy
2:51 PM 59.0 °F - 44.1 °F 58% 30.23 in 10.0 mi NW 13.8 mph 18.4 mph N/A   Clear
3:51 PM 57.9 °F - 43.0 °F 58% 30.25 in 10.0 mi West 10.4 mph - N/A   Scattered Clouds
4:51 PM 57.0 °F - 43.0 °F 59% 30.25 in 10.0 mi WNW 5.8 mph - N/A   Clear
5:51 PM 55.9 °F - 43.0 °F 62% 30.26 in 10.0 mi NW 5.8 mph - N/A   Clear
6:51 PM 54.0 °F - 42.1 °F 64% 30.27 in 10.0 mi NW 5.8 mph - N/A   Scattered Clouds
7:51 PM 50.0 °F - 43.0 °F 77% 30.28 in 10.0 mi SSE 3.5 mph - N/A   Partly Cloudy
8:51 PM 46.9 °F - 42.1 °F 83% 30.30 in 10.0 mi SSE 3.5 mph - N/A   Clear
9:51 PM 46.0 °F - 42.1 °F 86% 30.30 in 10.0 mi Calm Calm - N/A   Clear
10:51 PM 46.0 °F 44.8 °F 41.0 °F 83% 30.31 in 10.0 mi NE 3.5 mph - N/A   Clear
11:51 PM 50.0 °F - 42.1 °F 74% 30.32 in 10.0 mi NNE 8.1 mph - N/A   Clear